FW5328 Weather Reports


time (UTC)temp
C
wind
direction
speed
KPH
gust
KPH
rain 1hr
cm
rain 24hr
cm
rain mn
cm
humidity
%
barometer
mb
20260906113104 17 9 1.6 6.4 0.00 0.00 0.00 94 1019.8
20260906112558 17 30 1.6 6.4 0.00 0.00 0.00 94 1019.6
20260906112058 17 0 1.6 6.4 0.00 0.00 0.00 94 1019.5
20260906111617 17 61 3.2 4.8 0.00 0.00 0.00 94 1019.6
20260906111058 17 13 1.6 4.8 0.00 0.00 0.00 94 1019.5
20260906110558 17 0 1.6 6.4 0.00 0.00 0.00 94 1019.4
20260906105558 17 42 3.2 8.0 0.00 0.00 0.00 94 1019.4
20260906105100 17 64 3.2 9.7 0.00 0.00 0.00 94 1019.4
20260906104604 17 19 4.8 9.7 0.00 0.00 0.00 94 1019.5
20260906104057 17 23 4.8 9.7 0.00 0.00 0.00 94 1019.4
20260906103558 17 57 4.8 9.7 0.00 0.00 0.00 94 1019.4
20260906103104 17 46 4.8 9.7 0.00 0.00 0.00 94 1019.4
20260906102600 17 34 4.8 9.7 0.00 0.00 0.00 94 1019.4
20260906102059 17 10 4.8 8.0 0.00 0.00 0.00 94 1019.2
20260906101604 17 20 4.8 8.0 0.00 0.00 0.00 94 1019.3
20260906101058 17 25 3.2 8.0 0.00 0.00 0.00 94 1019.3
20260906100558 17 23 3.2 8.0 0.00 0.00 0.00 94 1019.3
20260906100104 17 19 3.2 8.0 0.00 0.00 0.00 94 1019.1
20260906095558 17 28 3.2 8.0 0.00 0.00 0.00 94 1018.9
20260906095058 17 45 3.2 9.7 0.00 0.00 0.00 93 1018.9
20260906094600 17 47 3.2 14.5 0.00 0.00 0.00 93 1018.9
20260906094057 18 19 4.8 14.5 0.00 0.00 0.00 93 1018.9
20260906093558 17 30 6.4 12.9 0.00 0.00 0.00 93 1018.9
20260906093103 17 29 4.8 9.7 0.00 0.00 0.00 93 1019.0
20260906092558 17 30 6.4 12.9 0.00 0.00 0.00 93 1019.0
20260906092058 17 44 4.8 12.9 0.00 0.00 0.00 93 1019.0
20260906091605 17 41 6.4 11.3 0.00 0.00 0.00 93 1018.9
20260906091100 17 24 4.8 11.3 0.00 0.00 0.00 93 1019.0
20260906090558 17 28 4.8 11.3 0.00 0.00 0.00 93 1018.9
20260906090121 17 45 4.8 11.3 0.00 0.00 0.00 93 1018.9
20260906085559 17 16 6.4 11.3 0.00 0.00 0.00 93 1018.9
20260906085058 17 27 3.2 11.3 0.00 0.00 0.00 93 1019.0
20260906084601 18 46 6.4 12.9 0.00 0.00 0.00 93 1019.0
20260906084058 18 17 4.8 12.9 0.00 0.00 0.00 93 1018.9
20260906083602 18 41 4.8 11.3 0.00 0.00 0.00 93 1018.9
20260906083107 18 39 4.8 11.3 0.00 0.00 0.00 93 1018.8
20260906082558 18 44 3.2 9.7 0.00 0.00 0.00 93 1018.8
20260906082058 18 30 4.8 11.3 0.00 0.00 0.00 93 1018.9
20260906081603 18 20 4.8 11.3 0.00 0.00 0.00 93 1018.8
20260906081101 18 26 4.8 8.0 0.00 0.00 0.00 93 1018.9
20260906080601 18 25 3.2 6.4 0.00 0.00 0.00 92 1018.9
20260906080107 18 11 3.2 8.0 0.00 0.00 0.00 92 1019.0
20260906075558 18 5 3.2 8.0 0.00 0.00 0.00 92 1018.9
20260906075118 18 25 3.2 6.4 0.00 0.00 0.00 92 1018.9
20260906074608 18 34 1.6 6.4 0.00 0.00 0.00 92 1018.9
20260906074058 18 24 3.2 6.4 0.00 0.00 0.00 92 1018.9
20260906073558 17 19 3.2 4.8 0.00 0.00 0.00 92 1018.9
20260906073102 17 22 1.6 4.8 0.00 0.00 0.00 92 1018.9
20260906072558 17 21 1.6 6.4 0.00 0.00 0.00 92 1018.9
20260906072058 17 5 1.6 6.4 0.00 0.00 0.00 92 1019.0
20260906071602 17 5 1.6 4.8 0.00 0.00 0.00 92 1018.9
20260906071058 17 318 1.6 4.8 0.00 0.00 0.00 92 1018.8
20260906070559 17 342 1.6 4.8 0.00 0.00 0.00 92 1018.8
20260906070103 17 331 1.6 4.8 0.00 0.00 0.00 92 1018.8
20260906065600 17 331 1.6 4.8 0.00 0.00 0.00 92 1018.8
20260906065059 18 331 1.6 4.8 0.00 0.00 0.00 92 1018.9
20260906064600 18 331 1.6 4.8 0.00 0.00 0.00 92 1019.0
20260906064058 18 331 1.6 4.8 0.00 0.00 0.00 92 1019.1
20260906063600 18 298 1.6 4.8 0.00 0.00 0.00 92 1019.1
20260906063104 18 298 1.6 4.8 0.00 0.00 0.00 92 1019.2
20260906062557 18 298 0.0 4.8 0.00 0.00 0.00 92 1019.1
20260906062100 18 298 1.6 4.8 0.00 0.00 0.00 92 1019.1
20260906061604 18 317 0.0 3.2 0.00 0.00 0.00 92 1019.1
20260906061101 18 0 1.6 4.8 0.00 0.00 0.00 91 1019.1
20260906060558 18 321 1.6 4.8 0.00 0.00 0.00 92 1019.1
20260906060105 18 0 1.6 4.8 0.00 0.00 0.00 92 1019.1
20260906055558 18 321 1.6 4.8 0.00 0.00 0.00 92 1019.0
20260906055058 18 14 1.6 4.8 0.00 0.00 0.00 92 1018.9
20260906054608 18 5 1.6 6.4 0.00 0.00 0.00 92 1018.9
20260906054058 18 13 1.6 6.4 0.00 0.00 0.00 92 1018.9
20260906053601 18 5 1.6 6.4 0.00 0.00 0.00 92 1018.9
20260906053103 18 39 1.6 6.4 0.00 0.00 0.00 92 1018.9
20260906052559 18 29 3.2 6.4 0.00 0.00 0.00 92 1018.8
20260906052100 18 17 3.2 8.0 0.00 0.00 0.00 92 1018.7
20260906051612 18 20 3.2 8.0 0.00 0.00 0.00 91 1018.9
20260906051059 18 17 3.2 8.0 0.00 0.00 0.00 91 1018.9
20260906050601 18 26 4.8 8.0 0.00 0.00 0.00 91 1018.7
20260906050104 18 5 3.2 8.0 0.00 0.00 0.00 91 1018.6
20260906045559 18 16 3.2 8.0 0.00 0.00 0.00 91 1018.6
20260906045103 19 21 3.2 8.0 0.00 0.00 0.00 91 1018.6
20260906044609 19 28 3.2 8.0 0.00 0.00 0.00 91 1018.6
20260906044100 19 33 3.2 8.0 0.00 0.00 0.00 91 1018.5
20260906043559 19 11 3.2 8.0 0.00 0.00 0.00 91 1018.5
20260906043105 19 41 3.2 12.9 0.00 0.00 0.00 91 1018.4
20260906042600 19 25 3.2 12.9 0.00 0.00 0.00 91 1018.4
20260906042059 19 16 4.8 12.9 0.00 0.00 0.00 91 1018.3
20260906041601 19 27 4.8 12.9 0.00 0.00 0.00 91 1018.2
20260906041059 19 11 4.8 14.5 0.00 0.00 0.00 91 1018.1
20260906040600 20 33 6.4 14.5 0.00 0.00 0.00 91 1018.1
20260906040139 20 66 4.8 14.5 0.00 0.00 0.00 91 1018.1
20260906035559 20 37 8.0 14.5 0.00 0.00 0.00 90 1018.0
20260906035100 20 29 4.8 14.5 0.00 0.00 0.00 90 1018.1
20260906034611 20 47 4.8 14.5 0.00 0.00 0.00 91 1018.0
20260906034101 20 33 4.8 14.5 0.00 0.00 0.00 90 1017.8
20260906033559 20 47 6.4 16.1 0.00 0.00 0.00 90 1017.8
20260906033107 20 40 6.4 16.1 0.00 0.00 0.00 90 1017.8
20260906032559 20 75 6.4 16.1 0.00 0.00 0.00 90 1017.8
20260906032100 20 16 4.8 16.1 0.00 0.00 0.00 90 1017.8
20260906031605 20 78 6.4 14.5 0.00 0.00 0.00 90 1017.8
20260906031059 20 65 4.8 11.3 0.00 0.00 0.00 90 1017.9
20260906030600 20 64 6.4 11.3 0.00 0.00 0.00 90 1017.9
20260906030105 20 65 4.8 11.3 0.00 0.00 0.00 89 1017.8
20260906025559 20 81 3.2 16.1 0.00 0.00 0.00 89 1017.7
20260906025100 20 69 6.4 16.1 0.00 0.00 0.00 89 1017.7
20260906024614 20 64 4.8 16.1 0.00 0.00 0.00 89 1017.8
20260906024059 20 58 6.4 16.1 0.00 0.00 0.00 89 1017.8
20260906023603 20 58 6.4 16.1 0.00 0.00 0.00 89 1017.8
20260906023105 20 46 4.8 17.7 0.00 0.00 0.00 89 1017.8
20260906022602 20 11 8.0 17.7 0.00 0.00 0.00 89 1017.8
20260906022059 20 66 4.8 11.3 0.00 0.00 0.00 89 1017.7
20260906021603 20 88 4.8 14.5 0.00 0.00 0.00 88 1017.7
20260906021100 20 73 3.2 14.5 0.00 0.00 0.00 88 1017.8
20260906020600 20 103 6.4 16.1 0.00 0.00 0.00 88 1017.9
20260906020106 20 47 6.4 24.1 0.00 0.00 0.00 88 1017.9
20260906015559 20 51 6.4 24.1 0.00 0.00 0.00 88 1017.9
20260906015103 21 99 11.3 19.3 0.00 0.00 0.00 88 1017.8
20260906014600 21 61 8.0 14.5 0.00 0.00 0.00 88 1017.7
20260906014059 21 69 6.4 14.5 0.00 0.00 0.00 88 1017.5
20260906013602 21 55 4.8 14.5 0.00 0.00 0.00 88 1017.7
20260906013114 21 50 6.4 12.9 0.00 0.00 0.00 88 1017.7
20260906012559 21 76 4.8 16.1 0.00 0.00 0.00 88 1017.7
20260906012059 21 15 6.4 16.1 0.00 0.00 0.00 88 1017.7
20260906011605 21 16 4.8 16.1 0.00 0.00 0.00 88 1017.8
20260906011059 21 12 8.0 16.1 0.00 0.00 0.00 88 1017.7
20260906010600 21 38 6.4 16.1 0.00 0.00 0.00 88 1017.7
20260906010104 21 44 6.4 17.7 0.00 0.00 0.00 88 1017.8
20260906005601 21 339 4.8 19.3 0.00 0.00 0.00 88 1017.8
20260906005100 21 51 8.0 19.3 0.00 0.00 0.00 88 1017.7
20260906004604 21 71 11.3 19.3 0.00 0.00 0.00 87 1017.7
20260906004059 21 52 9.7 20.9 0.00 0.00 0.00 87 1017.5
20260906003600 21 30 8.0 20.9 0.00 0.00 0.00 87 1017.5
20260906003104 21 9 9.7 20.9 0.00 0.00 0.00 87 1017.6
20260906002603 21 23 9.7 20.9 0.00 0.00 0.00 87 1017.5
20260906002100 21 39 8.0 19.3 0.00 0.00 0.00 87 1017.4
20260906001610 21 34 8.0 19.3 0.00 0.00 0.00 87 1017.4
20260906001100 21 44 9.7 19.3 0.00 0.00 0.00 87 1017.5
20260906000602 21 47 9.7 24.1 0.00 0.00 0.00 86 1017.6
20260905235603 21 27 12.9 25.7 0.00 0.00 0.00 86 1017.3
20260905235059 21 342 12.9 22.5 0.00 0.00 0.00 86 1017.2
20260905234604 21 27 9.7 20.9 0.00 0.00 0.00 86 1017.2
20260905234100 22 72 8.0 17.7 0.00 0.00 0.00 85 1017.3
20260905233600 22 42 9.7 20.9 0.00 0.00 0.00 85 1017.3
20260905233104 22 77 8.0 20.9 0.00 0.00 0.00 85 1017.3
20260905232559 22 23 9.7 20.9 0.00 0.00 0.00 84 1017.4
20260905232101 22 22 11.3 24.1 0.00 0.00 0.00 83 1017.3
20260905231608 22 70 12.9 27.4 0.00 0.00 0.00 83 1017.5
20260905231100 22 75 9.7 27.4 0.00 0.00 0.00 82 1017.3
20260905230600 23 45 16.1 29.0 0.00 0.00 0.00 81 1017.3
20260905230108 23 61 17.7 29.0 0.00 0.00 0.00 81 1017.3
20260905225557 23 61 14.5 25.7 0.00 0.00 0.00 81 1017.3
20260905225058 23 63 16.1 25.7 0.00 0.00 0.00 80 1017.1
20260905224617 24 43 12.9 25.7 0.00 0.00 0.00 80 1017.0
20260905224058 24 13 12.9 25.7 0.00 0.00 0.00 80 1017.0
20260905223557 25 360 14.5 25.7 0.00 0.00 0.00 79 1016.8
20260905223116 25 27 8.0 20.9 0.00 0.00 0.00 79 1016.8
20260905222557 25 36 12.9 22.5 0.00 0.00 0.00 78 1016.8
20260905222056 25 65 12.9 29.0 0.00 0.00 0.00 78 1016.8
20260905221605 25 59 12.9 29.0 0.00 0.00 0.00 78 1017.0
20260905221058 25 360 9.7 20.9 0.00 0.00 0.00 79 1016.9
20260905220559 25 62 9.7 20.9 0.00 0.00 0.00 79 1016.9
20260905220105 25 41 11.3 19.3 0.00 0.00 0.00 79 1016.8
20260905215600 25 13 8.0 19.3 0.00 0.00 0.00 80 1016.7
20260905215100 25 93 8.0 27.4 0.00 0.00 0.00 79 1016.6
20260905214605 25 42 11.3 27.4 0.00 0.00 0.00 78 1016.5
20260905214057 25 71 11.3 20.9 0.00 0.00 0.00 78 1016.4
20260905213556 25 23 9.7 19.3 0.00 0.00 0.00 77 1016.5
20260905213113 26 11 9.7 19.3 0.00 0.00 0.00 77 1016.3
20260905212557 26 51 8.0 22.5 0.00 0.00 0.00 78 1016.3
20260905212057 26 19 12.9 22.5 0.00 0.00 0.00 78 1016.1
20260905211605 26 25 9.7 22.5 0.00 0.00 0.00 79 1016.2
20260905211057 26 65 8.0 24.1 0.00 0.00 0.00 78 1016.1
20260905210557 26 61 11.3 24.1 0.00 0.00 0.00 78 1016.0
20260905210108 26 14 12.9 20.9 0.00 0.00 0.00 76 1016.1
20260905205601 26 96 8.0 17.7 0.00 0.00 0.00 76 1016.1
20260905205057 27 68 8.0 16.1 0.00 0.00 0.00 76 1016.2
20260905204603 27 39 3.2 14.5 0.00 0.00 0.00 75 1016.3
20260905204056 27 26 6.4 16.1 0.00 0.00 0.00 74 1016.1
20260905203557 27 5 8.0 17.7 0.00 0.00 0.00 74 1016.1
20260905203103 27 333 6.4 17.7 0.00 0.00 0.00 75 1016.1
20260905202559 27 30 6.4 17.7 0.00 0.00 0.00 73 1016.0
20260905202057 28 64 8.0 16.1 0.00 0.00 0.00 73 1016.0
20260905201602 27 44 4.8 16.1 0.00 0.00 0.00 75 1016.1
20260905201057 27 0 4.8 14.5 0.00 0.00 0.00 74 1016.2
20260905200557 27 43 6.4 14.5 0.00 0.00 0.00 76 1016.1
20260905200105 27 5 6.4 14.5 0.00 0.00 0.00 75 1016.2
20260905195601 27 44 6.4 14.5 0.00 0.00 0.00 75 1016.2
20260905195059 27 360 4.8 14.5 0.00 0.00 0.00 76 1016.3
20260905194602 27 17 6.4 12.9 0.00 0.00 0.00 77 1016.3
20260905194101 26 318 6.4 14.5 0.00 0.00 0.00 78 1016.3
20260905193600 26 66 4.8 17.7 0.00 0.00 0.00 78 1016.4
20260905193107 26 55 8.0 17.7 0.00 0.00 0.00 79 1016.5
20260905192559 26 331 4.8 16.1 0.00 0.00 0.00 80 1016.4
20260905192059 26 26 8.0 16.1 0.00 0.00 0.00 79 1016.5
20260905191608 26 51 4.8 12.9 0.00 0.00 0.00 80 1016.6
20260905191059 26 5 6.4 17.7 0.00 0.00 0.00 79 1016.6
20260905190600 25 68 6.4 17.7 0.00 0.00 0.00 81 1016.6
20260905190106 25 84 11.3 17.7 0.00 0.00 0.00 81 1016.7
20260905185559 25 33 4.8 17.7 0.00 0.00 0.00 82 1016.8
20260905185059 25 24 8.0 17.7 0.00 0.00 0.00 82 1016.9
20260905184606 25 44 6.4 16.1 0.00 0.00 0.00 83 1016.9
20260905184059 25 55 6.4 14.5 0.00 0.00 0.00 84 1016.9
20260905183559 25 10 6.4 14.5 0.00 0.00 0.00 83 1017.0
20260905183106 24 9 4.8 12.9 0.00 0.00 0.00 83 1017.0
20260905182558 24 17 4.8 12.9 0.00 0.00 0.00 84 1017.0
20260905182059 24 33 4.8 12.9 0.00 0.00 0.00 84 1017.0
20260905181604 24 16 4.8 12.9 0.00 0.00 0.00 83 1016.8
20260905181059 24 15 8.0 12.9 0.00 0.00 0.00 84 1016.8
20260905180602 24 9 4.8 16.1 0.00 0.00 0.00 84 1016.8
20260905180109 24 18 6.4 16.1 0.00 0.00 0.00 84 1016.9
20260905175559 24 55 6.4 14.5 0.00 0.00 0.00 83 1016.9
20260905175059 24 35 4.8 17.7 0.00 0.00 0.00 83 1016.9
20260905174606 24 67 6.4 17.7 0.00 0.00 0.00 83 1016.8
20260905174100 24 46 8.0 17.7 0.00 0.00 0.00 84 1016.8
20260905173600 24 41 8.0 17.7 0.00 0.00 0.00 85 1016.7
20260905173134 23 360 9.7 17.7 0.00 0.00 0.00 85 1016.7
20260905172602 23 41 8.0 17.7 0.00 0.00 0.00 87 1016.8
20260905172059 23 62 4.8 16.1 0.00 0.00 0.00 87 1016.9
20260905171609 23 23 8.0 16.1 0.00 0.00 0.00 87 1017.0
20260905171058 23 332 6.4 19.3 0.00 0.00 0.00 87 1017.0
20260905170559 23 20 9.7 19.3 0.00 0.00 0.00 87 1017.0
20260905170115 23 32 4.8 19.3 0.00 0.00 0.00 87 1017.1
20260905165602 23 35 4.8 19.3 0.00 0.13 0.00 87 1017.1
20260905165058 23 20 8.0 19.3 0.00 0.13 0.00 87 1017.1
20260905164609 23 19 4.8 19.3 0.00 0.13 0.00 88 1017.1
20260905164100 23 32 8.0 19.3 0.00 0.13 0.00 87 1017.1
20260905163559 23 22 6.4 19.3 0.00 0.13 0.00 88 1017.2
20260905163127 23 5 9.7 16.1 0.00 0.13 0.00 88 1017.1
20260905162559 23 17 8.0 17.7 0.00 0.13 0.00 88 1017.1
20260905162058 23 33 6.4 17.7 0.00 0.13 0.00 88 1017.1
20260905161616 23 25 6.4 16.1 0.00 0.13 0.00 89 1017.1
20260905161059 23 49 8.0 17.7 0.00 0.13 0.00 88 1017.1
20260905160600 23 54 4.8 17.7 0.00 0.13 0.00 88 1017.1
20260905160106 23 74 6.4 17.7 0.00 0.13 0.00 88 1017.1
20260905155558 23 42 8.0 17.7 0.00 0.13 0.00 88 1017.2
20260905155100 23 76 6.4 19.3 0.00 0.13 0.00 88 1017.0
20260905154616 23 53 9.7 19.3 0.00 0.13 0.00 88 1016.9
20260905154102 23 46 6.4 19.3 0.00 0.13 0.00 89 1016.7
20260905153558 23 52 8.0 19.3 0.00 0.13 0.00 89 1016.7
20260905153105 23 78 11.3 19.3 0.00 0.13 0.00 89 1016.7
20260905152559 23 32 8.0 16.1 0.00 0.13 0.00 89 1016.7
20260905152058 23 34 6.4 16.1 0.00 0.13 0.00 90 1016.7
20260905151603 23 57 4.8 16.1 0.00 0.13 0.00 90 1016.5
20260905151059 23 9 8.0 16.1 0.00 0.13 0.00 91 1016.4
20260905150558 23 59 6.4 16.1 0.00 0.13 0.00 91 1016.4
20260905150110 23 36 3.2 16.1 0.00 0.13 0.00 91 1016.4
20260905145559 23 0 4.8 16.1 0.00 0.13 0.00 91 1016.4
20260905145102 22 36 8.0 16.1 0.00 0.13 0.00 91 1016.3
20260905144609 22 5 6.4 14.5 0.00 0.13 0.00 92 1016.2
20260905144058 22 13 4.8 12.9 0.00 0.13 0.00 92 1016.3
20260905143601 22 15 6.4 12.9 0.00 0.13 0.00 92 1016.2
20260905143109 22 63 6.4 12.9 0.00 0.13 0.00 93 1016.2
20260905142603 22 114 3.2 11.3 0.00 0.13 0.00 93 1016.2
20260905142058 22 15 3.2 14.5 0.00 0.13 0.00 93 1016.1
20260905141606 22 15 6.4 16.1 0.00 0.13 0.00 93 1016.2
20260905141058 22 36 4.8 16.1 0.00 0.13 0.00 93 1016.3
20260905140559 22 25 8.0 14.5 0.00 0.13 0.00 93 1016.2
20260905140110 22 26 6.4 14.5 0.00 0.13 0.00 93 1016.1
20260905135558 22 5 4.8 14.5 0.00 0.13 0.00 93 1015.9
20260905135102 22 21 6.4 14.5 0.00 0.13 0.00 94 1015.9
20260905134602 22 50 4.8 17.7 0.00 0.13 0.00 93 1016.1
20260905134059 21 36 6.4 19.3 0.00 0.13 0.00 93 1016.1
20260905133557 21 29 9.7 19.3 0.00 0.13 0.00 93 1016.0
20260905133107 21 46 8.0 19.3 0.00 0.13 0.00 93 1016.1
20260905132558 21 36 8.0 20.9 0.00 0.13 0.00 93 1016.0
20260905132059 21 49 9.7 20.9 0.00 0.13 0.00 94 1016.1
20260905131608 21 33 9.7 17.7 0.00 0.13 0.00 94 1016.2
20260905131100 21 342 9.7 16.1 0.00 0.13 0.00 94 1016.4
20260905130559 21 326 3.2 14.5 0.00 0.13 0.00 94 1016.2
20260905130104 21 17 8.0 14.5 0.00 0.13 0.00 94 1015.9
20260905125618 21 40 8.0 14.5 0.00 0.13 0.00 94 1015.7
20260905125058 21 38 6.4 17.7 0.00 0.13 0.00 94 1015.7
20260905124601 21 15 8.0 17.7 0.00 0.13 0.00 94 1015.8
20260905124059 21 32 6.4 14.5 0.00 0.13 0.00 93 1015.7
20260905123558 21 24 8.0 16.1 0.00 0.13 0.00 94 1015.7
20260905123109 21 23 6.4 16.1 0.00 0.13 0.00 94 1015.4
20260905122559 21 57 8.0 16.1 0.00 0.13 0.00 94 1015.4
20260905122059 21 35 6.4 16.1 0.00 0.13 0.00 93 1015.2
20260905121605 21 15 4.8 16.1 0.00 0.13 0.00 93 1015.2
20260905121059 21 51 6.4 16.1 0.00 0.13 0.00 93 1015.2
20260905120559 21 59 6.4 16.1 0.00 0.13 0.00 93 1015.2
20260905120106 21 42 8.0 16.1 0.00 0.13 0.00 93 1015.0
20260905115558 21 32 8.0 14.5 0.00 0.13 0.00 93 1015.0
20260905115058 21 58 8.0 14.5 0.00 0.13 0.00 93 1015.0
20260905114604 21 19 4.8 14.5 0.00 0.13 0.00 93 1014.9
20260905114058 21 26 3.2 14.5 0.00 0.13 0.00 93 1014.7
20260905113559 21 81 8.0 17.7 0.00 0.13 0.00 93 1014.7